Simultaneous Nadir Overpasses (SNOs) Predictions

Prediction of SNOs between METOP-B and NPP Satellite Orbit:

Table of predicted SNOs for the next 14.0 days since TLE Epoch: 9/24/2022
Index Date (METOP-B) Time (METOP-B) Lat,Lon (METOP-B) SZA (METOP-B ) Date (NPP) Time (NPP) Lat,Lon (NPP) SZA (NPP ) Distance(km) Time Diff (sec)
1 10/04/2022 07:32:47 73.38, 60.04 77.71 10/04/2022 07:31:39 73.42, 57.59 77.83 78.08 68
2 10/04/2022 08:23:30 -73.35,-132.73 102.32 10/04/2022 08:22:21 -73.31,-134.85 102.28 68.01 69
3 10/04/2022 09:14:14 73.12, 34.10 77.48 10/04/2022 09:13:03 73.13, 32.87 77.54 39.83 71
4 10/04/2022 10:04:58 -73.03,-158.76 102.59 10/04/2022 10:03:45 -73.02,-159.58 102.57 26.48 73
5 10/04/2022 10:55:41 72.84, 8.19 77.25 10/04/2022 10:54:27 72.83, 8.13 77.25 2.46 74
6 10/04/2022 11:46:24 -72.81, 175.43 102.77 10/04/2022 11:45:11 -72.82, 175.46 102.75 1.98 73
7 10/04/2022 12:37:03 72.83, -17.19 77.26 10/04/2022 12:35:57 72.83, -17.25 77.28 2.00 66
8 10/04/2022 13:27:45 -72.84, 150.16 102.72 10/04/2022 13:26:41 -72.83, 150.08 102.72 2.98 64
9 10/04/2022 14:18:25 72.81, -42.57 77.27 10/04/2022 14:17:26 72.79, -42.53 77.26 2.78 59
10 10/04/2022 15:09:07 -72.82, 124.78 102.71 10/04/2022 15:08:11 -72.83, 124.70 102.69 3.00 56
11 10/04/2022 15:59:47 72.79, -67.95 77.28 10/04/2022 15:58:56 72.79, -67.91 77.29 1.18 51
12 10/04/2022 16:50:29 -72.80, 99.40 102.70 10/04/2022 16:49:40 -72.79, 99.42 102.71 2.13 49
13 10/04/2022 17:41:09 72.77, -93.33 77.29 10/04/2022 17:40:26 72.80, -93.30 77.32 2.82 43
14 10/04/2022 18:31:51 -72.79, 74.03 102.69 10/04/2022 18:31:10 -72.79, 74.03 102.68 0.45 41
15 10/04/2022 19:22:30 72.81,-118.60 77.35 10/04/2022 19:21:56 72.80,-118.68 77.35 2.79 34
16 10/04/2022 20:13:13 -72.77, 48.65 102.68 10/04/2022 20:12:40 -72.79, 48.65 102.65 2.91 33
17 10/04/2022 21:03:52 72.79,-143.97 77.36 10/04/2022 21:03:25 72.76,-143.96 77.33 3.59 27
18 10/04/2022 21:54:35 -72.75, 23.27 102.67 10/04/2022 21:54:09 -72.75, 23.37 102.67 3.20 26
19 10/04/2022 22:45:14 72.77,-169.35 77.37 10/04/2022 22:44:55 72.76,-169.34 77.36 1.06 19
20 10/04/2022 23:35:56 -72.78, -2.00 102.61 10/04/2022 23:35:39 -72.75, -2.01 102.63 3.35 17
21 10/05/2022 00:26:35 72.75, 165.27 77.38 10/05/2022 00:26:24 72.76, 165.27 77.40 1.51 11
22 10/05/2022 01:17:17 -72.77, -27.38 102.60 10/05/2022 01:17:08 -72.76, -27.40 102.60 1.09 9
23 10/05/2022 02:07:57 72.73, 139.89 77.39 10/05/2022 02:07:53 72.72, 139.99 77.37 3.66 4
24 10/05/2022 02:58:39 -72.75, -52.75 102.59 10/05/2022 02:58:38 -72.76, -52.78 102.57 1.95 1
25 10/05/2022 03:49:19 72.72, 114.52 77.40 10/05/2022 03:49:23 72.72, 114.61 77.41 3.21 4
26 10/05/2022 04:40:01 -72.73, -78.13 102.58 10/05/2022 04:40:07 -72.72, -78.06 102.59 2.66 6
27 10/05/2022 05:30:40 72.75, 89.24 77.46 10/05/2022 05:30:53 72.73, 89.22 77.44 2.26 13
28 10/05/2022 06:21:23 -72.71,-103.51 102.57 10/05/2022 06:21:37 -72.72,-103.45 102.56 2.30 14
29 10/05/2022 07:12:02 72.73, 63.87 77.47 10/05/2022 07:12:23 72.73, 63.84 77.47 0.95 21
30 10/05/2022 08:02:44 -72.74,-128.78 102.51 10/05/2022 08:03:07 -72.73,-128.83 102.53 2.63 23
31 10/05/2022 08:53:24 72.71, 38.49 77.48 10/05/2022 08:53:53 72.74, 38.46 77.50 3.12 29
32 10/05/2022 09:44:06 -72.73,-154.16 102.50 10/05/2022 09:44:37 -72.73,-154.21 102.50 1.97 31
33 10/05/2022 10:34:46 72.69, 13.11 77.49 10/05/2022 10:35:22 72.69, 13.18 77.48 2.14 36
34 10/05/2022 11:25:28 -72.71,-179.53 102.49 10/05/2022 11:26:06 -72.69,-179.49 102.52 2.92 38
35 10/05/2022 12:16:08 72.68, -12.26 77.50 10/05/2022 12:16:52 72.70, -12.21 77.51 3.03 44
36 10/05/2022 13:06:50 -72.69, 155.09 102.48 10/05/2022 13:07:36 -72.69, 155.12 102.49 1.07 46
37 10/05/2022 13:57:29 72.71, -37.54 77.56 10/05/2022 13:58:22 72.70, -37.59 77.54 1.96 53
38 10/05/2022 14:48:12 -72.67, 129.71 102.47 10/05/2022 14:49:06 -72.69, 129.74 102.45 2.55 54
39 10/05/2022 15:38:51 72.69, -62.91 77.57 10/05/2022 15:39:52 72.71, -62.98 77.58 2.71 61
40 10/05/2022 16:29:33 -72.71, 104.44 102.41 10/05/2022 16:30:36 -72.70, 104.35 102.42 2.95 63
41 10/05/2022 17:20:13 72.67, -88.29 77.58 10/05/2022 17:21:21 72.66, -88.26 77.56 1.77 68
42 10/05/2022 18:10:55 -72.69, 79.06 102.40 10/05/2022 18:12:06 -72.70, 78.97 102.39 3.60 71
43 10/05/2022 19:01:37 72.55,-113.88 77.49 10/05/2022 19:02:50 72.61,-113.54 77.53 13.28 73
44 10/05/2022 19:52:20 -72.52, 53.38 102.54 10/05/2022 19:53:33 -72.56, 53.90 102.52 17.88 73
45 10/05/2022 20:43:04 72.28,-139.76 77.26 10/05/2022 20:44:14 72.31,-138.31 77.24 49.35 70
46 10/05/2022 21:33:48 -72.19, 27.40 102.81 10/05/2022 21:34:57 -72.26, 29.12 102.81 58.89 69
47 10/05/2022 22:24:32 71.95,-165.73 76.98 10/05/2022 22:25:38 72.01,-163.10 76.96 90.78 66
48 10/05/2022 23:15:15 -71.92, 1.54 103.04 10/05/2022 23:16:21 -71.95, 4.33 103.09 96.27 66



Historial Predications of SNOs between METOP-B and NPP
